Weather History for St. Johnsbury, VT

Change the Weather History Date:

Tuesday, October 4, 2011

  Actual Average Record
Temperature  
Mean Temperature 54 °F 52 °F  
Max Temperature 58 °F 63 °F 81 °F (1967)
Min Temperature 49 °F 41 °F 23 °F (1945)
Degree Days  
Heating Degree Days 11 13  
Month to date heating degree days 44 50  
Since 1 July heating degree days 204 284  
Cooling Degree Days 0 0  
Month to date cooling degree days 0 0  
Year to date cooling degree days 375 432  
Growing Degree Days 2 (Base 50)    
Moisture  
Dew Point 51 °F    
Average Humidity 93    
Maximum Humidity 100    
Minimum Humidity 86    
Precipitation  
Precipitation 0.10 in 0.12 in 2.45 in (1987)
Month to date precipitation 1.37 0.50  
Year to date precipitation 43.60 29.65  
Sea Level Pressure  
Sea Level Pressure 30.01 in    
Wind  
Wind Speed - (North)    
Max Wind Speed -    
Max Gust Speed -    
T = Trace of Precipitation, MM = Missing Value Source: NWS Daily Summary

Daily Weather History Graph

Daily Weather History Graph

Search for Another Location

Airport:

Trip Planner

Search our weather history database for the weather conditions in past years. The results will help you decide how hot, cold, wet, or windy it might be!

Date:

Astronomy

Oct. 04, 2011 Rise Set
Actual Time 6:49 AM EDT 6:23 PM EDT
Civil Twilight 6:20 AM EDT 6:52 PM EDT
Nautical Twilight 5:46 AM EDT 7:26 PM EDT
Astronomical Twilight 5:12 AM EDT 8:00 PM EDT
Moon 2:38 PM EDT (10/4) No Moon Set
Length of Visible Light 12h 32m
Length of Day
11h 34m
First Quarter, 56% of the Moon is Illuminated
Oct 4
First Quarter
Oct 11
Full
Oct 19
Last Quarter
Oct 26
New
Nov 2
First Quarter

Hourly Weather History & Observations

Time (EDT) Temp. Dew Point Humidity Pressure Visibility Wind Dir Wind Speed Gust Speed Precip Events Conditions
12:54 AM 53.1 °F 52.0 °F 96% 30.05 in - North - - N/A   Unknown
1:54 AM 51.1 °F 50.0 °F 96% 30.06 in - North - - N/A   Unknown
2:54 AM 51.1 °F 51.1 °F 100% 30.05 in - North - - N/A   Unknown
3:54 AM 50.0 °F 50.0 °F 100% 30.04 in - North - - N/A   Unknown
4:54 AM 50.0 °F 50.0 °F 100% 30.04 in - North - - N/A   Unknown
5:54 AM 48.9 °F 48.9 °F 100% 30.04 in - North - - N/A   Unknown
6:54 AM 48.9 °F 48.9 °F 100% 30.04 in - North - - N/A   Unknown
7:54 AM 48.9 °F 48.9 °F 100% 30.05 in - North - - N/A   Unknown
8:54 AM 50.0 °F 50.0 °F 100% 30.04 in - North - - N/A   Unknown
9:54 AM 51.1 °F 50.0 °F 96% 30.04 in - North - - N/A   Unknown
10:54 AM 54.0 °F 51.1 °F 90% 30.02 in - North - - N/A   Unknown
11:54 AM 57.0 °F 53.1 °F 87% 30.02 in - North - - N/A   Unknown
12:54 PM 57.9 °F 54.0 °F 87% 30.00 in - North - - 0.01 in   Unknown
1:54 PM 55.0 °F 52.0 °F 89% 29.99 in - North - - 0.02 in   Unknown
2:54 PM 55.0 °F 53.1 °F 93% 29.99 in - North - - 0.04 in   Unknown
3:54 PM 55.0 °F 53.1 °F 93% 29.99 in - North - - 0.01 in   Unknown
4:54 PM 55.9 °F 54.0 °F 93% 29.98 in - North - - 0.02 in   Unknown
5:54 PM 55.0 °F 53.1 °F 93% 29.98 in - North - - N/A   Unknown
6:54 PM 55.0 °F 52.0 °F 89% 29.97 in - North - - N/A   Unknown
7:54 PM 55.9 °F 52.0 °F 87% 29.96 in - North - - N/A   Unknown
8:54 PM 55.0 °F 53.1 °F 93% 29.97 in - North - - N/A   Unknown
9:54 PM 55.0 °F 51.1 °F 86% 29.97 in - North - - N/A   Unknown
10:54 PM 54.0 °F 51.1 °F 90% 29.98 in - North - - N/A   Unknown
11:54 PM 53.1 °F 50.0 °F 89% 29.98 in - North - - N/A   Unknown